QPF
0.01 0.00 0.01 0.02 0.01 0.01 0.01 0.01 0.02 0.03 0.06 0.05 0.03 0.02 0.01 0.00 0.00 0.01 0.02 0.02 0.02 0.01 0.01 0.01 0.01 0.01 0.01 0.02 0.03 0.03 0.03 0.03 0.03 0.04 0.05 0.05 0.06 0.05 0.04 0.05 0.05 0.05 0.05 0.05
0.01 0.01 0.01 0.02 0.01 0.01 0.01 0.01 0.03 0.04 0.05 0.03 0.01 0.01 0.00 0.00 0.00 0.01 0.02 0.02 0.02 0.02 0.01 0.01 0.01 0.01 0.01 0.01 0.02 0.03 0.04 0.03 0.03 0.04 0.05 0.05 0.04 0.05 0.05 0.05 0.05 0.04 0.04 0.04
0.03 0.01 0.02 0.02 0.01 0.02 0.02 0.02 0.03 0.03 0.03 0.02 0.01 0.00 0.00 0.01 0.01 0.01 0.02 0.02 0.03 0.03 0.02 0.01 0.01 0.02 0.02 0.01 0.02 0.03 0.03 0.03 0.03 0.03 0.04 0.05 0.04 0.04 0.04 0.04 0.04 0.03 0.03 0.03
0.02 0.03 0.03 0.03 0.02 0.02 0.01 0.01 0.01 0.01 0.01 0.00 0.00 0.01 0.01 0.01 0.02 0.02 0.02 0.02 0.03 0.04 0.03 0.02 0.01 0.03 0.04 0.02 0.02 0.03 0.03 0.03 0.02 0.02 0.02 0.03 0.05 0.05 0.04 0.04 0.03 0.03 0.03 0.02
0.04 0.04 0.03 0.03 0.02 0.01 0.01 0.03 0.01 0.01 0.01 0.00 0.00 0.01 0.02 0.02 0.04 0.05 0.02 0.02 0.03 0.03 0.04 0.03 0.02 0.02 0.04 0.04 0.03 0.03 0.03 0.02 0.02 0.02 0.03 0.03 0.04 0.04 0.03 0.03 0.03 0.03 0.02 0.03
0.06 0.06 0.05 0.07 0.04 0.02 0.02 0.05 0.03 0.02 0.02 0.02 0.02 0.02 0.02 0.02 0.03 0.03 0.02 0.02 0.03 0.04 0.05 0.04 0.02 0.02 0.04 0.04 0.04 0.03 0.03 0.02 0.02 0.03 0.04 0.03 0.02 0.03 0.02 0.03 0.03 0.03 0.03 0.03
0.06 0.06 0.06 0.06 0.03 0.02 0.04 0.06 0.03 0.02 0.02 0.03 0.03 0.03 0.02 0.02 0.02 0.02 0.01 0.01 0.02 0.04 0.05 0.04 0.03 0.02 0.03 0.04 0.04 0.03 0.04 0.03 0.03 0.03 0.03 0.03 0.03 0.03 0.03 0.03 0.04 0.05 0.06 0.06
0.06 0.07 0.06 0.06 0.06 0.05 0.07 0.05 0.04 0.03 0.03 0.03 0.03 0.03 0.03 0.02 0.01 0.01 0.01 0.01 0.01 0.03 0.04 0.03 0.04 0.03 0.03 0.04 0.04 0.04 0.04 0.04 0.03 0.03 0.03 0.02 0.03 0.03 0.03 0.04 0.05 0.06 0.07 0.07
0.07 0.07 0.06 0.06 0.06 0.05 0.05 0.05 0.04 0.05 0.07 0.07 0.05 0.04 0.03 0.03 0.02 0.01 0.01 0.01 0.02 0.04 0.04 0.03 0.04 0.04 0.04 0.03 0.04 0.04 0.05 0.03 0.03 0.03 0.02 0.02 0.03 0.04 0.05 0.05 0.05 0.05 0.05 0.05
0.08 0.07 0.05 0.03 0.04 0.03 0.02 0.02 0.02 0.02 0.03 0.04 0.03 0.02 0.02 0.02 0.02 0.02 0.02 0.01 0.02 0.04 0.03 0.02 0.02 0.03 0.03 0.02 0.03 0.05 0.05 0.04 0.03 0.02 0.02 0.03 0.04 0.05 0.05 0.06 0.05 0.04 0.04 0.04
0.10 0.07 0.05 0.03 0.03 0.04 0.04 0.03 0.02 0.02 0.01 0.01 0.01 0.01 0.01 0.01 0.02 0.02 0.02 0.02 0.03 0.04 0.04 0.03 0.02 0.03 0.03 0.03 0.05 0.07 0.08 0.08 0.07 0.05 0.05 0.05 0.06 0.06 0.06 0.05 0.05 0.04 0.04 0.04
0.09 0.07 0.07 0.05 0.05 0.06 0.07 0.06 0.04 0.03 0.02 0.01 0.01 0.01 0.01 0.02 0.02 0.02 0.02 0.03 0.03 0.04 0.04 0.03 0.03 0.03 0.04 0.04 0.06 0.08 0.11 0.12 0.11 0.10 0.08 0.08 0.08 0.07 0.07 0.07 0.06 0.05 0.04 0.03
0.08 0.07 0.07 0.07 0.08 0.08 0.07 0.05 0.03 0.02 0.02 0.02 0.01 0.01 0.01 0.02 0.02 0.02 0.03 0.04 0.04 0.05 0.04 0.04 0.04 0.04 0.04 0.04 0.04 0.06 0.08 0.09 0.08 0.07 0.07 0.09 0.09 0.08 0.06 0.05 0.05 0.05 0.03 0.03
0.04 0.04 0.06 0.08 0.09 0.08 0.05 0.03 0.02 0.02 0.04 0.04 0.01 0.01 0.01 0.02 0.02 0.02 0.03 0.04 0.04 0.04 0.04 0.06 0.07 0.08 0.08 0.06 0.05 0.05 0.06 0.06 0.06 0.06 0.06 0.05 0.06 0.05 0.05 0.05 0.05 0.05 0.05 0.05
0.03 0.03 0.05 0.06 0.08 0.08 0.05 0.03 0.03 0.03 0.05 0.05 0.02 0.02 0.02 0.02 0.02 0.03 0.03 0.03 0.04 0.03 0.02 0.02 0.03 0.04 0.05 0.05 0.05 0.04 0.04 0.04 0.04 0.04 0.04 0.04 0.04 0.04 0.04 0.04 0.04 0.05 0.05 0.06
0.03 0.03 0.04 0.05 0.07 0.08 0.06 0.04 0.04 0.03 0.04 0.05 0.04 0.04 0.04 0.03 0.03 0.03 0.03 0.04 0.04 0.04 0.03 0.02 0.02 0.02 0.02 0.02 0.03 0.03 0.03 0.02 0.02 0.02 0.03 0.03 0.03 0.04 0.04 0.04 0.04 0.04 0.05 0.06
0.04 0.06 0.07 0.07 0.06 0.06 0.05 0.04 0.03 0.03 0.03 0.04 0.05 0.06 0.05 0.04 0.03 0.03 0.03 0.03 0.04 0.05 0.05 0.05 0.04 0.03 0.02 0.02 0.02 0.01 0.01 0.01 0.01 0.01 0.01 0.01 0.02 0.02 0.03 0.03 0.04 0.04 0.04 0.04
0.04 0.06 0.07 0.07 0.06 0.04 0.04 0.04 0.04 0.04 0.03 0.03 0.02 0.03 0.04 0.03 0.03 0.02 0.02 0.02 0.03 0.04 0.06 0.05 0.05 0.03 0.02 0.02 0.02 0.01 0.01 0.01 0.01 0.01 0.01 0.02 0.02 0.01 0.01 0.02 0.02 0.03 0.03 0.03
0.03 0.04 0.05 0.06 0.05 0.03 0.03 0.03 0.04 0.05 0.04 0.03 0.02 0.02 0.02 0.02 0.02 0.02 0.02 0.03 0.03 0.04 0.06 0.06 0.06 0.05 0.02 0.01 0.01 0.01 0.01 0.02 0.02 0.01 0.01 0.01 0.01 0.01 0.02 0.02 0.02 0.03 0.03 0.03
0.03 0.03 0.04 0.04 0.04 0.02 0.02 0.02 0.02 0.03 0.03 0.03 0.03 0.03 0.03 0.02 0.02 0.02 0.03 0.03 0.03 0.03 0.05 0.06 0.05 0.05 0.05 0.02 0.01 0.01 0.01 0.02 0.03 0.02 0.02 0.02 0.02 0.02 0.02 0.02 0.02 0.02 0.02 0.02
0.03 0.04 0.03 0.03 0.02 0.02 0.02 0.02 0.02 0.02 0.01 0.02 0.02 0.03 0.04 0.04 0.03 0.03 0.04 0.05 0.04 0.03 0.04 0.05 0.03 0.04 0.05 0.05 0.03 0.02 0.02 0.02 0.03 0.03 0.03 0.02 0.02 0.02 0.02 0.02 0.02 0.03 0.03 0.03
0.03 0.03 0.03 0.03 0.03 0.02 0.02 0.02 0.02 0.02 0.01 0.01 0.01 0.01 0.02 0.02 0.02 0.03 0.04 0.06 0.06 0.06 0.05 0.05 0.03 0.02 0.04 0.07 0.06 0.05 0.04 0.03 0.03 0.03 0.02 0.02 0.02 0.01 0.02 0.02 0.02 0.02 0.02 0.02
0.03 0.04 0.04 0.04 0.04 0.03 0.03 0.02 0.02 0.02 0.01 0.01 0.01 0.01 0.01 0.01 0.02 0.03 0.04 0.05 0.07 0.07 0.06 0.06 0.05 0.04 0.04 0.05 0.07 0.07 0.07 0.05 0.04 0.04 0.04 0.03 0.02 0.02 0.02 0.02 0.02 0.02 0.02 0.02
0.03 0.05 0.05 0.06 0.04 0.04 0.04 0.04 0.03 0.03 0.02 0.01 0.01 0.01 0.01 0.01 0.01 0.02 0.04 0.06 0.07 0.07 0.06 0.08 0.07 0.06 0.04 0.03 0.04 0.06 0.06 0.07 0.07 0.06 0.05 0.04 0.04 0.03 0.03 0.04 0.05 0.04 0.03 0.03
0.03 0.04 0.05 0.06 0.07 0.06 0.06 0.05 0.04 0.04 0.03 0.02 0.01 0.01 0.00 0.00 0.01 0.02 0.03 0.04 0.06 0.06 0.06 0.07 0.07 0.06 0.05 0.04 0.04 0.04 0.04 0.06 0.07 0.07 0.06 0.05 0.04 0.03 0.03 0.04 0.07 0.05 0.04 0.04
0.03 0.04 0.05 0.05 0.07 0.07 0.08 0.07 0.06 0.05 0.05 0.05 0.04 0.03 0.01 0.01 0.01 0.01 0.02 0.03 0.05 0.06 0.05 0.05 0.06 0.06 0.06 0.07 0.06 0.06 0.05 0.05 0.06 0.07 0.07 0.07 0.06 0.05 0.05 0.05 0.07 0.08 0.06 0.05
0.02 0.05 0.06 0.05 0.05 0.05 0.05 0.06 0.06 0.06 0.06 0.06 0.06 0.04 0.02 0.01 0.01 0.01 0.02 0.03 0.04 0.05 0.05 0.05 0.05 0.06 0.06 0.07 0.07 0.07 0.07 0.06 0.06 0.07 0.07 0.08 0.08 0.08 0.07 0.06 0.07 0.08 0.07 0.06
MSLP
1005.84 1005.44 1005.06 1004.70 1004.38 1004.08 1003.79 1003.46 1003.08 1002.61 1002.03 1001.34 1000.57 999.74 998.92 998.16 997.54 997.12 996.95 997.06 997.48 998.19 999.14 1000.30 1001.59 1002.96 1004.33 1005.65 1006.89 1008.00 1009.00 1009.87 1010.64 1011.31 1011.90 1012.44 1012.91 1013.33 1013.69 1013.98 1014.21 1014.37 1014.47 1014.51
1006.11 1005.62 1005.09 1004.56 1004.04 1003.55 1003.10 1002.67 1002.25 1001.81 1001.33 1000.79 1000.19 999.55 998.90 998.28 997.75 997.38 997.23 997.32 997.70 998.35 999.26 1000.38 1001.65 1003.00 1004.37 1005.70 1006.95 1008.07 1009.07 1009.94 1010.70 1011.37 1011.95 1012.47 1012.93 1013.33 1013.67 1013.94 1014.15 1014.28 1014.35 1014.37
1006.17 1005.66 1005.05 1004.40 1003.74 1003.11 1002.53 1002.00 1001.53 1001.10 1000.67 1000.24 999.78 999.28 998.78 998.30 997.87 997.57 997.45 997.55 997.91 998.53 999.41 1000.49 1001.73 1003.07 1004.44 1005.77 1007.01 1008.14 1009.13 1010.00 1010.75 1011.40 1011.96 1012.46 1012.90 1013.28 1013.60 1013.85 1014.04 1014.15 1014.20 1014.18
1005.98 1005.48 1004.85 1004.13 1003.37 1002.63 1001.94 1001.32 1000.78 1000.33 999.93 999.56 999.20 998.84 998.47 998.12 997.82 997.61 997.56 997.70 998.08 998.70 999.56 1000.63 1001.85 1003.17 1004.51 1005.83 1007.06 1008.18 1009.16 1010.01 1010.74 1011.37 1011.91 1012.38 1012.80 1013.16 1013.46 1013.70 1013.87 1013.98 1014.02 1014.00
1005.55 1005.06 1004.41 1003.65 1002.83 1001.99 1001.20 1000.49 999.89 999.39 998.99 998.66 998.39 998.14 997.90 997.70 997.54 997.47 997.52 997.75 998.19 998.85 999.72 1000.78 1001.98 1003.28 1004.60 1005.88 1007.09 1008.18 1009.14 1009.96 1010.67 1011.27 1011.79 1012.24 1012.64 1012.99 1013.28 1013.52 1013.70 1013.81 1013.86 1013.86
1004.92 1004.42 1003.75 1002.94 1002.05 1001.13 1000.25 999.45 998.77 998.22 997.81 997.51 997.31 997.17 997.08 997.04 997.05 997.15 997.36 997.72 998.25 998.97 999.88 1000.95 1002.14 1003.40 1004.69 1005.94 1007.10 1008.16 1009.09 1009.89 1010.57 1011.15 1011.65 1012.09 1012.47 1012.81 1013.11 1013.36 1013.55 1013.69 1013.78 1013.81
1004.16 1003.61 1002.89 1002.02 1001.06 1000.05 999.08 998.20 997.45 996.85 996.43 996.16 996.03 996.01 996.08 996.23 996.44 996.74 997.13 997.65 998.31 999.12 1000.07 1001.16 1002.34 1003.57 1004.82 1006.02 1007.14 1008.15 1009.05 1009.82 1010.48 1011.05 1011.54 1011.97 1012.35 1012.70 1013.01 1013.28 1013.50 1013.68 1013.81 1013.89
1003.36 1002.73 1001.93 1000.98 999.94 998.86 997.81 996.85 996.04 995.41 994.99 994.76 994.72 994.83 995.07 995.41 995.83 996.34 996.94 997.63 998.42 999.33 1000.34 1001.44 1002.61 1003.81 1005.00 1006.15 1007.23 1008.20 1009.06 1009.81 1010.46 1011.02 1011.50 1011.94 1012.33 1012.69 1013.02 1013.32 1013.58 1013.80 1013.98 1014.11
1002.60 1001.86 1000.97 999.95 998.83 997.69 996.58 995.57 994.73 994.10 993.69 993.52 993.57 993.82 994.23 994.76 995.40 996.11 996.90 997.76 998.68 999.68 1000.73 1001.84 1002.99 1004.14 1005.28 1006.37 1007.39 1008.32 1009.15 1009.88 1010.52 1011.08 1011.58 1012.02 1012.43 1012.81 1013.16 1013.49 1013.78 1014.04 1014.26 1014.43
1001.91 1001.09 1000.12 999.05 997.89 996.71 995.58 994.57 993.73 993.11 992.75 992.65 992.81 993.19 993.75 994.46 995.28 996.18 997.13 998.13 999.15 1000.21 1001.29 1002.38 1003.48 1004.58 1005.65 1006.67 1007.63 1008.52 1009.32 1010.04 1010.67 1011.24 1011.74 1012.20 1012.63 1013.02 1013.39 1013.74 1014.06 1014.35 1014.59 1014.79
1001.33 1000.45 999.47 998.38 997.23 996.07 994.97 993.99 993.20 992.64 992.34 992.33 992.58 993.08 993.78 994.63 995.59 996.62 997.69 998.78 999.86 1000.94 1002.00 1003.06 1004.10 1005.11 1006.10 1007.04 1007.94 1008.77 1009.54 1010.24 1010.86 1011.43 1011.95 1012.42 1012.86 1013.26 1013.64 1014.00 1014.33 1014.63 1014.89 1015.11
1000.83 999.98 999.03 998.01 996.93 995.86 994.84 993.95 993.24 992.77 992.56 992.63 992.98 993.56 994.36 995.30 996.35 997.45 998.58 999.70 1000.79 1001.84 1002.85 1003.83 1004.78 1005.70 1006.59 1007.44 1008.26 1009.03 1009.75 1010.42 1011.03 1011.60 1012.12 1012.59 1013.03 1013.44 1013.83 1014.19 1014.53 1014.83 1015.09 1015.31
1000.42 999.66 998.82 997.92 996.98 996.05 995.17 994.41 993.83 993.46 993.35 993.50 993.92 994.56 995.40 996.39 997.46 998.58 999.71 1000.80 1001.84 1002.83 1003.76 1004.65 1005.49 1006.29 1007.07 1007.82 1008.55 1009.25 1009.91 1010.54 1011.13 1011.68 1012.18 1012.66 1013.09 1013.50 1013.89 1014.24 1014.58 1014.88 1015.14 1015.35
1000.08 999.47 998.80 998.08 997.33 996.58 995.88 995.28 994.84 994.60 994.58 994.80 995.27 995.94 996.79 997.76 998.81 999.88 1000.95 1001.97 1002.94 1003.83 1004.65 1005.42 1006.14 1006.83 1007.49 1008.14 1008.77 1009.39 1009.99 1010.57 1011.12 1011.64 1012.13 1012.59 1013.02 1013.42 1013.80 1014.16 1014.49 1014.79 1015.05 1015.26
999.84 999.41 998.94 998.43 997.88 997.34 996.84 996.42 996.14 996.01 996.08 996.36 996.84 997.51 998.32 999.24 1000.22 1001.21 1002.18 1003.11 1003.97 1004.75 1005.46 1006.11 1006.72 1007.30 1007.85 1008.40 1008.95 1009.49 1010.02 1010.54 1011.05 1011.53 1012.00 1012.43 1012.85 1013.24 1013.62 1013.97 1014.30 1014.60 1014.87 1015.09
999.73 999.48 999.20 998.89 998.56 998.23 997.92 997.68 997.54 997.53 997.67 997.98 998.47 999.10 999.85 1000.68 1001.56 1002.45 1003.31 1004.13 1004.87 1005.54 1006.15 1006.71 1007.22 1007.70 1008.17 1008.63 1009.10 1009.57 1010.04 1010.51 1010.97 1011.42 1011.85 1012.27 1012.67 1013.05 1013.42 1013.78 1014.11 1014.42 1014.69 1014.93
999.77 999.67 999.57 999.44 999.29 999.14 999.01 998.92 998.91 998.99 999.20 999.53 1000.00 1000.58 1001.25 1001.99 1002.77 1003.54 1004.29 1004.99 1005.64 1006.22 1006.75 1007.22 1007.66 1008.08 1008.49 1008.89 1009.30 1009.72 1010.13 1010.55 1010.97 1011.38 1011.79 1012.18 1012.57 1012.95 1013.32 1013.68 1014.01 1014.33 1014.61 1014.86
1000.01 1000.01 1000.03 1000.04 1000.04 1000.03 1000.04 1000.08 1000.17 1000.33 1000.58 1000.93 1001.37 1001.90 1002.50 1003.14 1003.81 1004.48 1005.13 1005.74 1006.31 1006.82 1007.29 1007.72 1008.12 1008.50 1008.87 1009.24 1009.61 1009.99 1010.37 1010.75 1011.13 1011.51 1011.89 1012.27 1012.64 1013.02 1013.38 1013.74 1014.08 1014.40 1014.69 1014.94
1000.44 1000.50 1000.58 1000.67 1000.77 1000.87 1000.98 1001.12 1001.29 1001.52 1001.80 1002.15 1002.57 1003.06 1003.59 1004.15 1004.74 1005.32 1005.89 1006.43 1006.94 1007.41 1007.84 1008.25 1008.63 1009.00 1009.36 1009.72 1010.07 1010.42 1010.78 1011.13 1011.49 1011.84 1012.20 1012.56 1012.92 1013.28 1013.65 1014.00 1014.35 1014.67 1014.95 1015.19
1001.05 1001.11 1001.21 1001.35 1001.50 1001.66 1001.85 1002.05 1002.29 1002.56 1002.87 1003.24 1003.65 1004.10 1004.58 1005.09 1005.61 1006.13 1006.63 1007.12 1007.59 1008.03 1008.46 1008.85 1009.24 1009.61 1009.97 1010.32 1010.66 1011.00 1011.33 1011.66 1011.99 1012.32 1012.66 1013.00 1013.35 1013.70 1014.06 1014.42 1014.76 1015.08 1015.35 1015.58
1001.79 1001.82 1001.91 1002.05 1002.22 1002.42 1002.65 1002.91 1003.19 1003.50 1003.85 1004.22 1004.63 1005.07 1005.52 1005.99 1006.46 1006.94 1007.40 1007.86 1008.30 1008.72 1009.13 1009.53 1009.92 1010.29 1010.65 1010.99 1011.32 1011.65 1011.96 1012.26 1012.57 1012.87 1013.18 1013.51 1013.84 1014.19 1014.55 1014.90 1015.25 1015.56 1015.84 1016.05
1002.62 1002.61 1002.67 1002.79 1002.96 1003.17 1003.42 1003.71 1004.03 1004.37 1004.75 1005.14 1005.56 1005.99 1006.43 1006.87 1007.32 1007.76 1008.20 1008.62 1009.04 1009.45 1009.85 1010.23 1010.61 1010.97 1011.32 1011.65 1011.96 1012.26 1012.55 1012.82 1013.10 1013.38 1013.67 1013.97 1014.30 1014.64 1015.00 1015.36 1015.71 1016.04 1016.32 1016.54
1003.50 1003.46 1003.48 1003.57 1003.73 1003.93 1004.19 1004.49 1004.83 1005.20 1005.59 1006.01 1006.44 1006.87 1007.30 1007.73 1008.15 1008.57 1008.98 1009.38 1009.77 1010.15 1010.52 1010.89 1011.24 1011.58 1011.90 1012.21 1012.49 1012.76 1013.01 1013.26 1013.50 1013.75 1014.02 1014.31 1014.63 1014.98 1015.35 1015.72 1016.10 1016.44 1016.74 1016.98
1004.44 1004.37 1004.36 1004.41 1004.54 1004.73 1004.97 1005.27 1005.61 1005.99 1006.40 1006.82 1007.25 1007.68 1008.11 1008.52 1008.92 1009.31 1009.69 1010.05 1010.41 1010.76 1011.10 1011.43 1011.74 1012.05 1012.33 1012.60 1012.85 1013.08 1013.30 1013.51 1013.73 1013.96 1014.22 1014.50 1014.83 1015.18 1015.57 1015.97 1016.37 1016.76 1017.10 1017.38
1005.44 1005.34 1005.31 1005.33 1005.42 1005.58 1005.80 1006.07 1006.40 1006.77 1007.16 1007.58 1007.99 1008.41 1008.82 1009.21 1009.58 1009.94 1010.28 1010.60 1010.92 1011.22 1011.52 1011.80 1012.08 1012.34 1012.59 1012.82 1013.04 1013.24 1013.43 1013.63 1013.83 1014.05 1014.30 1014.59 1014.92 1015.30 1015.71 1016.15 1016.59 1017.02 1017.41 1017.74
1006.50 1006.40 1006.34 1006.33 1006.39 1006.50 1006.68 1006.92 1007.21 1007.54 1007.91 1008.29 1008.67 1009.06 1009.43 1009.78 1010.11 1010.42 1010.72 1011.00 1011.26 1011.52 1011.77 1012.02 1012.26 1012.49 1012.71 1012.92 1013.11 1013.30 1013.49 1013.68 1013.88 1014.11 1014.38 1014.68 1015.03 1015.43 1015.87 1016.34 1016.82 1017.29 1017.72 1018.10
1007.62 1007.52 1007.45 1007.41 1007.43 1007.50 1007.63 1007.82 1008.05 1008.33 1008.64 1008.97 1009.30 1009.63 1009.94 1010.24 1010.52 1010.78 1011.02 1011.25 1011.47 1011.69 1011.90 1012.12 1012.33 1012.55 1012.76 1012.97 1013.17 1013.37 1013.58 1013.79 1014.02 1014.28 1014.57 1014.90 1015.28 1015.70 1016.16 1016.65 1017.15 1017.64 1018.11 1018.52
Thickness
5720 5730 5733 5733 5735 5739 5735 5732 5725 5728 5730 5735 5742 5744 5746 5748 5746 5743 5740 5738 5735 5733 5731 5730 5727 5725 5724 5721 5718 5716 5712 5708 5706 5704 5702 5700 5697 5696 5694 5691 5690 5687 5685 5684
5708 5721 5726 5723 5729 5731 5732 5732 5728 5727 5727 5740 5744 5741 5739 5737 5734 5731 5730 5729 5727 5725 5723 5721 5718 5717 5716 5714 5712 5708 5704 5701 5700 5698 5696 5694 5691 5689 5687 5685 5683 5681 5679 5679
5691 5709 5711 5702 5716 5721 5722 5726 5725 5717 5722 5732 5729 5727 5726 5724 5723 5718 5719 5719 5718 5716 5714 5713 5711 5710 5708 5707 5705 5701 5698 5696 5694 5692 5690 5688 5687 5684 5681 5678 5676 5675 5674 5673
5684 5688 5676 5702 5724 5724 5720 5720 5723 5721 5721 5722 5718 5718 5717 5715 5711 5707 5708 5709 5708 5707 5706 5706 5706 5703 5701 5699 5696 5694 5692 5690 5688 5686 5684 5682 5680 5678 5675 5673 5670 5669 5668 5667
5674 5673 5681 5696 5711 5712 5708 5701 5711 5709 5711 5712 5711 5709 5705 5706 5703 5698 5700 5701 5700 5699 5699 5698 5697 5696 5693 5691 5689 5687 5686 5684 5683 5681 5678 5675 5673 5671 5669 5667 5665 5664 5663 5662
5668 5661 5664 5679 5705 5716 5709 5689 5699 5700 5698 5698 5698 5687 5689 5696 5694 5692 5694 5693 5691 5691 5690 5688 5688 5688 5685 5683 5682 5680 5680 5679 5678 5676 5673 5670 5668 5666 5664 5662 5660 5659 5659 5658
5662 5659 5663 5681 5696 5701 5677 5672 5688 5690 5688 5687 5685 5683 5685 5688 5687 5686 5685 5685 5685 5682 5680 5680 5680 5680 5677 5676 5675 5675 5675 5674 5673 5671 5668 5666 5664 5661 5659 5657 5655 5654 5653 5652
5656 5652 5652 5674 5679 5668 5666 5678 5683 5683 5682 5679 5677 5679 5678 5679 5678 5678 5678 5676 5676 5674 5673 5673 5673 5672 5669 5668 5669 5670 5669 5667 5666 5664 5662 5661 5657 5655 5653 5650 5648 5647 5646 5645
5646 5647 5657 5662 5663 5666 5670 5670 5674 5674 5674 5672 5669 5669 5669 5669 5668 5669 5669 5668 5667 5666 5664 5664 5665 5664 5661 5661 5662 5662 5660 5658 5657 5656 5655 5654 5651 5648 5646 5644 5642 5641 5639 5638
5636 5644 5650 5655 5658 5662 5664 5665 5666 5666 5666 5665 5662 5662 5661 5660 5660 5659 5659 5658 5658 5657 5656 5656 5657 5658 5657 5656 5656 5654 5651 5650 5649 5648 5647 5646 5644 5643 5640 5638 5636 5634 5632 5631
5626 5633 5639 5643 5647 5650 5653 5657 5658 5659 5660 5657 5655 5654 5653 5652 5652 5651 5650 5649 5649 5648 5647 5648 5649 5648 5649 5649 5647 5645 5643 5642 5641 5641 5641 5639 5637 5635 5634 5632 5630 5627 5626 5623
5617 5625 5626 5630 5639 5643 5643 5647 5650 5650 5650 5650 5649 5647 5646 5645 5644 5643 5642 5641 5641 5640 5640 5640 5641 5640 5640 5640 5638 5637 5635 5634 5634 5634 5633 5632 5630 5628 5626 5625 5622 5620 5618 5615
5617 5622 5624 5628 5631 5635 5637 5640 5642 5643 5642 5642 5641 5640 5638 5636 5635 5635 5634 5633 5632 5632 5633 5634 5633 5633 5633 5632 5632 5629 5628 5628 5628 5628 5627 5625 5623 5621 5618 5616 5614 5612 5611 5608
5616 5616 5616 5619 5622 5626 5630 5633 5635 5634 5634 5635 5633 5632 5630 5628 5627 5626 5625 5626 5626 5626 5626 5626 5626 5625 5625 5625 5624 5622 5622 5621 5621 5621 5620 5619 5618 5616 5615 5612 5609 5608 5606 5602
5610 5611 5611 5615 5616 5618 5621 5623 5623 5623 5624 5624 5624 5623 5621 5619 5617 5617 5618 5619 5618 5618 5618 5618 5618 5617 5618 5617 5616 5615 5614 5614 5614 5614 5614 5613 5612 5611 5610 5608 5607 5604 5602 5599
5603 5604 5606 5606 5607 5610 5613 5613 5612 5613 5614 5614 5613 5613 5613 5612 5610 5610 5610 5610 5608 5609 5609 5609 5609 5609 5609 5608 5607 5607 5608 5606 5606 5607 5607 5607 5606 5605 5604 5602 5601 5599 5597 5596
5594 5594 5595 5596 5599 5602 5604 5605 5605 5606 5606 5605 5605 5605 5605 5604 5603 5602 5602 5603 5602 5602 5602 5602 5602 5602 5602 5601 5601 5601 5601 5601 5599 5600 5600 5600 5600 5599 5598 5597 5596 5594 5593 5592
5592 5592 5592 5592 5592 5594 5596 5598 5599 5599 5598 5598 5598 5597 5596 5595 5595 5595 5595 5596 5596 5596 5595 5595 5594 5594 5594 5594 5593 5594 5594 5594 5594 5594 5594 5593 5593 5593 5593 5591 5590 5588 5587 5587
5587 5588 5588 5587 5588 5588 5590 5592 5592 5591 5591 5590 5589 5588 5588 5588 5588 5589 5589 5589 5588 5587 5587 5588 5586 5586 5588 5587 5585 5586 5588 5588 5588 5588 5588 5587 5587 5588 5587 5585 5584 5582 5582 5581
5581 5582 5582 5583 5583 5584 5584 5585 5585 5584 5584 5583 5582 5581 5580 5581 5581 5582 5582 5581 5581 5580 5580 5580 5580 5581 5581 5581 5579 5582 5583 5583 5583 5583 5582 5582 5581 5581 5580 5579 5578 5577 5575 5574
5574 5575 5577 5577 5578 5578 5579 5579 5579 5579 5578 5577 5576 5575 5574 5575 5575 5576 5575 5574 5574 5573 5574 5573 5573 5574 5574 5572 5572 5577 5577 5577 5577 5577 5576 5575 5574 5573 5572 5570 5570 5570 5569 5568
5568 5569 5570 5571 5571 5571 5572 5573 5573 5573 5573 5572 5571 5570 5569 5569 5569 5570 5569 5568 5567 5564 5566 5567 5567 5564 5563 5563 5567 5569 5570 5571 5570 5570 5569 5568 5566 5565 5563 5562 5561 5560 5560 5559
5561 5562 5562 5563 5563 5563 5565 5566 5566 5566 5566 5566 5565 5565 5564 5563 5563 5563 5561 5561 5561 5557 5558 5559 5556 5555 5554 5557 5560 5562 5562 5562 5562 5561 5561 5560 5558 5556 5554 5553 5552 5551 5550 5549
5554 5554 5555 5556 5556 5556 5557 5558 5559 5559 5559 5559 5560 5559 5558 5558 5557 5558 5556 5553 5552 5550 5551 5549 5547 5547 5547 5551 5552 5554 5554 5554 5553 5552 5551 5550 5549 5548 5546 5544 5542 5541 5540 5539
5548 5548 5548 5548 5548 5549 5550 5551 5552 5552 5553 5553 5553 5553 5553 5553 5552 5551 5550 5548 5545 5544 5545 5543 5541 5541 5543 5544 5545 5545 5545 5543 5542 5541 5540 5539 5538 5537 5535 5534 5532 5531 5530 5529
5540 5541 5541 5541 5542 5542 5544 5545 5545 5546 5546 5546 5545 5546 5546 5546 5545 5544 5543 5541 5540 5538 5538 5538 5537 5535 5536 5537 5536 5536 5535 5534 5534 5533 5531 5530 5528 5526 5525 5524 5523 5522 5520 5520
5535 5534 5535 5536 5537 5539 5539 5539 5539 5539 5539 5538 5537 5539 5539 5538 5537 5535 5535 5534 5533 5533 5532 5530 5530 5529 5529 5529 5528 5527 5525 5525 5524 5523 5522 5520 5518 5516 5515 5514 5513 5512 5510 5509